Miscellaneous Local Product
Issued by NWS North Platte, NE

Home | Current Version | Previous Version | Graphics & Text | Print | Product List | Glossary On
Versions: 1 2 3 4 5 6 7 8 9 10 11 12 13 14 15 16 17 18 19 20 21 22 23 24 25 26 27 28 29 30 31 32 33 34 35 36 37 38 39 40 41 42 43 44 45 46 47 48 49 50
681
AXUS43 KLBF 280710
MISLBF


WESTERN AND NORTH CENTRAL NEBRASKA HOURLY WEATHER ROUNDUP
NATIONAL WEATHER SERVICE NORTH PLATTE NE
200 AM CDT THU JUL 28 2016

NOTE: "FAIR" INDICATES FEW OR NO CLOUDS BELOW 12,000 FEET WITH NO
SIGNIFICANT WEATHER AND/OR OBSTRUCTIONS TO VISIBILITY.

NOTE: STATIONS NOT REPORTING VARIABLES SUCH AS SKY/WEATHER OR
PRESSURE ARE PROVIDED BY RAWS AND APRS NETWORKS AND ARE NOT UNDER
NATIONAL WEATHER SERVICE QUALITY CONTROL.

...OBSERVATIONS IN AND NEAR THE EASTERN PANHANDLE OF NEBRASKA...

CITY           SKY/WX    TMP DP  RH WIND       PRES   REMARKS
PINE RIDGE     PTCLDY    66  61  84 SW3       30.14S
CHADRON        PTCLDY    68  59  73 NE7       30.12S
ALLIANCE       CLOUDY    61  55  81 SE8       30.15S
SIDNEY         CLOUDY    63  59  87 S9        30.20R
CRESCENT LAKE    N/A     65  55  69 S7G14       N/A
$$

...OBSERVATIONS IN NORTHERN NEBRASKA AND FAR SOUTHERN SOUTH DAKOTA...

CITY           SKY/WX    TMP DP  RH WIND       PRES   REMARKS
WINNER         FAIR      62  59  90 W5        30.11F
VALENTINE      CLEAR     59  56  89 MISG      30.12S
THEDFORD       CLEAR     61  59  95 CALM      30.11F
AINSWORTH      CLEAR     59  58  98 N3        30.12S
O`NEILL        CLOUDY    64  61  92 NW6       30.09R
ORD            CLEAR     61  58  90 W3        30.06S
BROKEN BOW     CLEAR     61  60  97 CALM      30.08F
VALENTINE NWR    N/A     59  57  92 SW3         N/A
BUTTE            N/A     64  61  91 N6          N/A
EWING            N/A     63  62  95 CALM        N/A
$$

...OBSERVATIONS IN SOUTHWEST NEBRASKA AND FAR NORTHEAST COLORADO...

CITY           SKY/WX    TMP DP  RH WIND       PRES   REMARKS
WRAY           FAIR      70  63  78 SE14      30.18
HOLYOKE        PTSUNNY   70  63  78 CALM      30.20R
IMPERIAL       CLOUDY    69  65  86 N7        30.16R
OGALLALA       CLOUDY    67  58  73 CALM      30.18R
NORTH PLATTE   PTCLDY    64  60  87 CALM      30.12R
MCCOOK         PTCLDY    69  67  93 CALM      30.11R
LEXINGTON      PTCLDY    66  61  84 NE6       30.10R
STAPLETON        N/A     60  58  93 CALM        N/A
GOTHENBURG       N/A     67  57  71 N7          N/A
CALLAWAY         N/A     62  60  94 CALM        N/A
$$

...OBSERVATIONS IN CENTRAL LINCOLN COUNTY AREA...

CITY           SKY/WX    TMP DP  RH WIND       PRES   REMARKS
N.P. AIRPORT   PTCLDY    64  60  87 CALM      30.12R
N.P. DOWNTOWN    N/A     66  61  83 CALM        N/A
N.P. HILLCREST   N/A     65  61  86 E8G15       N/A
$$

...SOME OBSERVATIONS FROM AROUND THE REGION...

CITY           SKY/WX    TMP DP  RH WIND       PRES   REMARKS
DENVER         PTCLDY    69  55  60 SE15      30.20F
LARAMIE        CLEAR     63  52  67 SE20G29   30.29F
CHEYENNE       CLEAR     63  57  81 SE10      30.28F
SCOTTSBLUFF    CLOUDY    65  61  87 SE8       30.16R
RAPID CITY     CLOUDY    60  58  92 NE3       30.15F
BISMARCK       LGT RAIN  65  61  87 CALM      30.14S
PIERRE         CLEAR     63  61  93 CALM      30.09S
SIOUX FALLS    PTCLDY    65  59  81 NE7       30.04S
OMAHA          CLOUDY    72  68  87 NW6       29.97S
GRAND ISLAND   PTCLDY    67  61  81 CALM      30.04F
KANSAS CITY    PTCLDY    74  71  91 W5        29.95F
WICHITA        PTCLDY    75  71  87 CALM      29.97F
OKLAHOMA CITY  PTCLDY    74  72  93 S3        29.95F
DALLAS         CLOUDY    81  72  74 S7        29.92F
AMARILLO       CLOUDY    70  56  61 NE9       30.09R
DODGE CITY     CLOUDY    72  67  84 W5        30.08R THUNDER
HAYS           CLOUDY    73  64  73 SE3       30.03F
GOODLAND       CLOUDY    60  56  86 E6        30.15R
$$




USA.gov is the U.S. government's official web portal to all federal, state and local government web resources and services.